星链-2250 (STARLINK-2250 )

导读

STARLINK-2250是美国SpaceX公司星链星座的一员,于2021年5月15日发射升空,运行在低地球轨道。它作为星链全球卫星互联网项目的组网卫星,承担为偏远地区、地面基础设施覆盖盲区提供高速低延迟互联网接入服务的任务,具备自主避撞能力,寿命末期可主动离轨在大气层焚毁,助力星链实现全球覆盖的目标。

Basic Information
目录编号:
48593
目录名称:
STARLINK-2250
国际标识:
2021-041AS
轨道中心:
EARTH
卫星名称:
星链-2250
卫星全名:
星链-2250 (STARLINK-2250 )
卫星状态:
在轨 (已飞行1938 天)
发射日期:
2021-05-15 UTC
国别 :
美国 (US)
星等 :
--
Orbit Information
数据来源 国际轨道数据 AOE轨道数据
星历时间 2026-09-04T02:40:12+0800
12小时前
查看轨道信息
2026-09-03T09:00:00+0800
1天前
查看轨道信息
半长轴 6848.85km 6848.825km
偏心率 0.000126 0.0001114
轨道倾角 53.160° 53.159°
近地点辐角 88.072° 72.627°
升交点赤经 31.145° 34.572°
平近点角 272.043° 185.459°
近地点 469.85km 469.925km
远地点 471.576km 471.451km
周期 94.013分钟 94.012分钟
每日圈数 15.317091 15.317175
Detailed Information
固有亮度:
5
最大亮度:
2.5
卫星平台:
Starlink V1.0
覆盖范围:
全球
运营商:
太空探索技术公司
运营商所在国:
美国
制造商(研发单位):
太空探索技术公司
制造商所在国:
美国
使用方式:
暂无
Satellite Introduction
星链(Starlink)计划是由太空探索技术公司(SpaceX)提出的一个巨型低轨卫星互联网星座项目,计划在2019年至2024年间在太空搭建由约1.2万颗卫星组成的“星链”网络,其中1584颗将部署在地球上空550千米处的近地轨道,并从2020年开始工作。该卫星仍在工作。
2D Orbit Map
3D Orbit Map
Orbit Altitude Analysis Chart
Orbit Inclination Analysis Chart
Orbit Comprehensive Analysis Chart
View Comprehensive Chart
Conjunction Data List
Event ID Objects TCA Miss Dist (km) Collision Risk Probability Collision Risk Index (CRI) Action
CDM_260905-202604-859305-319321
2026-09-05T
20:26:52+0000
1.296 km
极远距离
8.531541E-6 低风险 0.54
CDM_260905-022204-859306-972421
2026-09-05T
02:22:47+0000
2.460 km
极远距离
1.589479E-6 低风险 0.39
CDM_260906-142604-859306-415021
2026-09-06T
14:26:49+0000
2.973 km
极远距离
1.116555E-6 低风险 0.36
CDM_260905-093104-859305-892121
NEXSAT-1 (58921)
2026-09-05T
09:31:49+0000
2.944 km
极远距离
1.035445E-6 低风险 0.35